Location: Rumah Long Bangan
(2.8362°N, 113.7519°E)
Time: 18:38:01
(UTC+00:00)

NOSS 3-1 (C) - Pass Details

Date: 24 October 2021
Orbit: 717 x 1491 km, 63.4° (Epoch: 25 November)

Event Time Altitude Azimuth Distance (km) Brightness Sun altitude
Exits shadow 20:36:45 18° 332° (NNW) 2,968 5.6 -23.2°
Maximum altitude 20:43:55 79° 248° (WSW) 1,512 4.3 -21.4°
Drops below altitude 10° 20:53:01 10° 162° (SSE) 3,581 6.8 -19.2°
Sets 20:55:55 0° 160° (SSE) 4,510 7.4 -18.5°
